sat.trackr.live / text

‹ back to catalog

STARLINK-4772

NORAD 53932 · 2022-119AY

PAYLOAD ACTIVE UNKNOWN

§ Identity

Operator
Country
US
Launch date
2022-09-24
Launch site
AFETR
Launch vehicle
Mass (kg)
RCS (m²)

Purposes: comms

External: N2YO · Heavens-Above · Gunter

§ Orbital elements

Epoch: 2026-05-25T04:39:53.150688Z

Period
95.44 min
Inclination
53.2146°
Eccentricity
0.0001081
Mean motion
15.08851368 rev/d
Perigee alt
539.0 km
Apogee alt
540.5 km
Semi-major
6,917.8 km
B*
1.2408e-4
RAAN
315.7686°
Arg perigee
99.7467°
Mean anomaly
260.3647°
Rev number
20,359

§ Raw data

STARLINK-47721 53932U 22119AY  26145.19436517  .00001688  00000+0  12408-3 0  99912 53932  53.2146 315.7686 0001081  99.7467 260.3647 15.08851368203595

JSON: /api/v1/satellites/53932 · /tle

For live sub-satellite position, see the globe view (requires WebGL).

§ Visibility from observer

Set your observer location to see the next 7 days of passes ≥ 10°. The values pass through the URL so the page stays shareable.

No JS? Fill the form by hand. The geolocation button needs JavaScript.